Flag for Guinea-Bissau Weather past 2 weeks in Bissau, Guinea-Bissau

Now
79 °F

Passing clouds.


Feels Like: 83 °F
Forecast: 76 / 87 °F
Wind: 2 mph from North

Location: Ziguinchor Airport

Current Time: Sep 3, 2015 at 7:06:07 AM

Latest Report: Sep 3, 2015 at 6:00 AM


Visibility: N/A

Pressure: 29.89 "Hg

Humidity: 100%

Dew point: 79 °F

Location of BissauLocation

Historic Weather in Bissau — Graph

°F

Bissau temperature yesterday

Maximum temperature yesterday: 91 °F (at 3:00 PM)
Minimum temperature yesterday: 77 °F (at 3:00 AM)
Average temperature yesterday: 82 °F

Past Weeks' High & Low Weather Summary

 TemperatureHumidityPressure
High91 °F (Aug 22, 3:00 PM)100% (Aug 19, 6:00 AM)30.07 "Hg (Aug 19, 6:00 AM)
Low72 °F (Aug 25, 5:00 PM)63% (Aug 31, 2:00 PM)29.80 "Hg (Aug 28, 4:00 PM)
Average81 °F90%29.92 "Hg
* Reported Aug 19 6:00 AM — Sep 3 6:00 AM, Bissau, Weather by CustomWeather, © 2015

Note: Actual official high and low records may vary slightly from our data, if they occured in-between our weather recording intervals... More about our weather records

Advertising

Bissau weather history for previous 24 hours

 ConditionsComfort  
Time TempWeatherWind HumidityBarometerVisibility
6:00 AM
Thu, Sep 3
79 °FPassing clouds.2 mph100%29.89 "HgN/A
5:00 AM79 °FPassing clouds.2 mph100%29.89 "HgN/A
4:00 AM79 °FPassing clouds.2 mph100%29.89 "HgN/A
3:00 AM79 °FPassing clouds.2 mph100%29.92 "HgN/A
2:30 AM79 °FPassing clouds.2 mph100%29.92 "HgN/A
1:00 AM79 °FPassing clouds.2 mph100%29.92 "HgN/A
12:00 AM79 °FPassing clouds.2 mph100%29.95 "HgN/A
11:00 PM
Wed, Sep 2
79 °FPassing clouds.2 mph100%29.92 "HgN/A
10:00 PM81 °FPassing clouds.2 mph94%29.92 "HgN/A
9:00 PM81 °FPassing clouds.2 mph94%29.89 "HgN/A
8:00 PM81 °FPassing clouds.5 mph94%29.89 "HgN/A
7:00 PM81 °FScattered clouds.5 mph94%29.89 "HgN/A
6:00 PM81 °FScattered clouds.7 mph94%29.89 "HgN/A
5:00 PM82 °FThunderstorms. Partly sunny.9 mph84%29.92 "HgN/A
4:00 PM90 °FPartly sunny.5 mph67%29.89 "HgN/A
3:00 PM91 °FPartly sunny.2 mph63%29.92 "HgN/A
2:00 PM90 °FPartly sunny.5 mph63%29.92 "HgN/A
1:30 PM90 °FPartly sunny.2 mph71%29.95 "HgN/A
1:00 PM90 °FPartly sunny.2 mph71%29.95 "HgN/A
12:00 PM88 °FPartly sunny.2 mph70%29.95 "HgN/A
11:00 AM88 °FPartly sunny.2 mph75%29.95 "HgN/A
10:00 AM84 °FPartly sunny.5 mph89%29.95 "HgN/A
9:00 AM81 °FPartly sunny.2 mph94%29.95 "HgN/A
8:00 AM79 °FPartly sunny.2 mph94%29.95 "HgN/A
7:00 AM77 °FBroken clouds.2 mph100%29.95 "HgN/A
Weather by CustomWeather, © 2015

See weather overviewHow to use our weather pages